Westfield, MA

5:30 PM EDT on October 18, 2017 (GMT -0400)
Barnes Municipal

Weather History for KBAF - March, 2013

Change the Weather History Date:

Saturday, March 9, 2013

  Actual Average Record
Temperature  
Mean Temperature 42 °F -  
Max Temperature 57 °F 39 °F 79 °F (2016)
Min Temperature 28 °F 21 °F 1 °F (2007)
Degree Days  
Heating Degree Days 22    
Moisture  
Dew Point 19 °F    
Average Humidity 48    
Maximum Humidity 75    
Minimum Humidity 15    
Precipitation  
Precipitation 0.00 in - - ()
Sea Level Pressure  
Sea Level Pressure 30.25 in    
Wind  
Wind Speed 6 mph (NNE)    
Max Wind Speed 12 mph    
Max Gust Speed -    
Visibility 10 miles    
Events      
Averages and records for this station are not official NWS values.
T = Trace of Precipitation, MM = Missing Value Source: NWS Daily Summary

Daily Weather History Graph

Daily Weather History Graph

Search for Another Location

Airport or City:

Trip Planner

Search our weather history database for the weather conditions in past years. The results will help you decide how hot, cold, wet, or windy it might be!

Date:

Astronomy

Mar. 09, 2013 Rise Set
Actual Time 6:12 AM EST 5:50 PM EST
Civil Twilight 5:44 AM EST 6:18 PM EST
Nautical Twilight 5:12 AM EST 6:51 PM EST
Astronomical Twilight 4:39 AM EST 7:23 PM EST
Moon 4:36 AM EST (3/9) 3:48 PM EST (3/9)
Length of Visible Light 12h 33m
Length of Day
11h 38m
Waning Crescent, 5% of the Moon is Illuminated
Mar 9
Waning Crescent
Mar 11
New
Mar 19
First Quarter
Mar 27
Full
Apr 3
Last Quarter

Hourly Weather History & Observations

Time (EST) Temp. Windchill Dew Point Humidity Pressure Visibility Wind Dir Wind Speed Gust Speed Precip Events Conditions
12:53 AM 35.1 °F 29.3 °F 21.9 °F 59% 30.20 in 10.0 mi North 6.9 mph - N/A   Clear
1:53 AM 34.0 °F 31.0 °F 21.0 °F 59% 30.19 in 10.0 mi NNW 3.5 mph - N/A   Clear
2:53 AM 32.0 °F 26.4 °F 21.9 °F 66% 30.19 in 10.0 mi NNE 5.8 mph - N/A   Clear
3:53 AM 30.9 °F 24.3 °F 21.9 °F 69% 30.19 in 10.0 mi North 6.9 mph - N/A   Clear
4:53 AM 30.9 °F 25.2 °F 21.0 °F 67% 30.22 in 10.0 mi NNE 5.8 mph - N/A   Clear
5:53 AM 28.0 °F 21.7 °F 21.0 °F 75% 30.24 in 10.0 mi North 5.8 mph - N/A   Clear
6:53 AM 28.0 °F 20.8 °F 19.9 °F 72% 30.25 in 10.0 mi North 6.9 mph - N/A   Clear
7:53 AM 34.0 °F 27.2 °F 23.0 °F 64% 30.26 in 10.0 mi North 8.1 mph - N/A   Clear
8:53 AM 39.0 °F 34.8 °F 24.1 °F 55% 30.26 in 10.0 mi North 5.8 mph - N/A   Clear
9:53 AM 43.0 °F 37.7 °F 19.9 °F 40% 30.26 in 10.0 mi NNE 9.2 mph - N/A   Clear
10:53 AM 46.9 °F - 19.9 °F 34% 30.26 in 10.0 mi NE 8.1 mph - N/A   Clear
11:53 AM 50.0 °F - 19.9 °F 31% 30.25 in 10.0 mi NE 8.1 mph - N/A   Clear
12:53 PM 52.0 °F - 17.1 °F 25% 30.23 in 10.0 mi NE 10.4 mph - N/A   Clear
1:53 PM 55.0 °F - 15.1 °F 21% 30.22 in 10.0 mi NE 9.2 mph - N/A   Clear
2:53 PM 55.9 °F - 12.9 °F 18% 30.21 in 10.0 mi NE 10.4 mph - N/A   Clear
3:53 PM 57.0 °F - 9.0 °F 15% 30.22 in 10.0 mi NNE 11.5 mph - N/A   Clear
4:53 PM 55.9 °F - 10.0 °F 16% 30.23 in 10.0 mi NE 5.8 mph - N/A   Clear
5:53 PM 52.0 °F - 10.9 °F 19% 30.25 in 10.0 mi North 5.8 mph - N/A   Clear
6:53 PM 43.0 °F - 19.0 °F 38% 30.28 in 10.0 mi Calm Calm - N/A   Clear
7:53 PM 37.9 °F - 12.9 °F 36% 30.29 in 10.0 mi Calm Calm - N/A   Clear
8:53 PM 33.1 °F 28.7 °F 21.0 °F 61% 30.30 in 10.0 mi NNW 4.6 mph - N/A   Clear
9:53 PM 32.0 °F 27.5 °F 19.9 °F 61% 30.32 in 10.0 mi North 4.6 mph - N/A   Clear
10:53 PM 30.9 °F - 21.9 °F 69% 30.33 in 10.0 mi Calm Calm - N/A   Clear
11:53 PM 28.0 °F - 19.9 °F 72% 30.35 in 10.0 mi Calm Calm - N/A   Clear